EW3307 Weather Reports


time (UTC)temp
F
wind
direction
speed
knots
gust
knots
rain 1hr
in
rain 24hr
in
rain mn
in
humidity
%
barometer
mb
20260507134514 65 140 0.0 0.0 0.00 0.00 0.00 41 1014.6
20260507133511 64 73 0.0 0.9 0.00 0.00 0.00 40 1014.3
20260507132506 64 97 0.9 0.9 0.00 0.00 0.00 37 1014.2
20260507131504 63 119 0.0 0.0 0.00 0.00 0.00 39 1014.5
20260507130504 63 144 0.0 0.0 0.00 0.00 0.00 38 1014.3
20260507125501 63 145 0.0 0.0 0.00 0.00 0.00 39 1014.2
20260507124459 63 138 0.0 0.0 0.00 0.00 0.00 38 1013.9
20260507123455 63 148 0.0 0.0 0.00 0.00 0.00 38 1013.8
20260507122452 63 144 0.0 0.0 0.00 0.00 0.00 36 1013.9
20260507121450 62 124 0.0 0.9 0.00 0.00 0.00 38 1013.8
20260507120449 62 136 0.0 0.0 0.00 0.00 0.00 37 1013.7
20260507115448 62 130 0.0 0.0 0.00 0.00 0.00 37 1013.9
20260507114445 63 124 0.0 0.0 0.00 0.00 0.00 38 1014.1
20260507113446 63 149 0.0 0.0 0.00 0.00 0.00 37 1014.0
20260507112440 63 114 0.0 0.9 0.00 0.00 0.00 37 1014.2
20260507111440 64 143 0.0 0.0 0.00 0.00 0.00 36 1014.0
20260507110438 64 144 0.0 0.0 0.00 0.00 0.00 35 1014.0
20260507105438 64 134 0.0 0.0 0.00 0.00 0.00 35 1014.4
20260507104437 64 146 0.0 0.0 0.00 0.00 0.00 35 1014.4
20260507103435 64 139 0.0 0.0 0.00 0.00 0.00 36 1014.4
20260507102434 64 144 0.0 0.0 0.00 0.00 0.00 35 1014.5
20260507101431 64 179 0.9 0.9 0.00 0.00 0.00 35 1014.5
20260507100431 65 136 0.0 0.0 0.00 0.00 0.00 35 1014.5
20260507095427 65 134 0.0 0.0 0.00 0.00 0.00 34 1014.6
20260507094426 65 143 0.0 0.9 0.00 0.00 0.00 34 1014.8
20260507093421 64 147 0.0 0.0 0.00 0.00 0.00 34 1014.7
20260507092420 65 159 0.0 0.0 0.00 0.00 0.00 33 1014.8
20260507091420 65 151 0.0 0.0 0.00 0.00 0.00 33 1014.7
20260507090418 66 150 0.0 0.0 0.00 0.00 0.00 33 1014.8
20260507085418 66 143 0.0 0.0 0.00 0.00 0.00 33 1014.9
20260507084417 67 144 0.0 0.0 0.00 0.00 0.00 33 1015.0
20260507083417 67 139 0.0 0.0 0.00 0.00 0.00 33 1014.8
20260507082415 68 138 0.0 0.0 0.00 0.00 0.00 32 1015.1
20260507081414 68 141 0.0 0.0 0.00 0.00 0.00 32 1015.1
20260507080413 68 150 0.0 0.0 0.00 0.00 0.00 31 1015.1
20260507075410 70 143 0.0 0.0 0.00 0.00 0.00 30 1015.0
20260507074410 71 144 0.0 0.0 0.00 0.00 0.00 29 1015.0
20260507073410 71 11 0.9 1.7 0.00 0.00 0.00 28 1015.3
20260507072404 71 140 0.0 0.0 0.00 0.00 0.00 29 1015.4
20260507071404 71 155 0.0 0.9 0.00 0.00 0.00 29 1015.3
20260507070404 71 104 0.0 0.9 0.00 0.00 0.00 29 1015.3
20260507065403 71 151 0.0 0.0 0.00 0.00 0.00 29 1015.1
20260507064359 71 149 0.0 0.0 0.00 0.00 0.00 29 1015.1
20260507063359 70 101 0.0 0.0 0.00 0.00 0.00 30 1015.4
20260507062358 70 144 0.0 0.0 0.00 0.00 0.00 30 1015.3
20260507061354 70 149 0.0 0.0 0.00 0.00 0.00 31 1015.1
20260507060355 70 150 0.0 0.0 0.00 0.00 0.00 32 1015.3
20260507055352 71 146 0.0 0.0 0.00 0.00 0.00 30 1015.1
20260507054351 72 152 0.0 0.0 0.00 0.00 0.00 29 1014.9
20260507053347 72 138 0.0 0.9 0.00 0.00 0.00 29 1015.1
20260507052341 72 124 0.0 0.0 0.00 0.00 0.00 29 1015.1
20260507051337 73 141 0.0 0.9 0.00 0.00 0.00 29 1015.3
20260507050335 73 144 0.9 0.9 0.00 0.00 0.00 29 1015.1
20260507045335 71 147 0.0 0.0 0.00 0.00 0.00 31 1015.0
20260507044335 72 149 0.0 0.0 0.00 0.00 0.00 30 1015.0
20260507043333 73 119 0.0 0.0 0.00 0.00 0.00 29 1014.9
20260507042331 73 146 0.0 0.0 0.00 0.00 0.00 29 1014.7
20260507041331 73 149 0.0 0.0 0.00 0.00 0.00 30 1014.6
20260507040330 74 150 0.0 0.0 0.00 0.00 0.00 30 1014.4
20260507035327 73 128 0.0 0.0 0.00 0.00 0.00 30 1014.4
20260507034322 73 150 0.0 0.0 0.00 0.00 0.00 30 1014.3
20260507033318 73 147 0.0 0.0 0.00 0.00 0.00 29 1014.4
20260507032316 73 152 0.0 0.0 0.00 0.00 0.00 30 1014.2
20260507031316 74 152 0.0 0.0 0.00 0.00 0.00 29 1013.9
20260507030316 75 156 0.0 0.0 0.00 0.00 0.00 28 1013.6
20260507025315 77 154 0.0 0.0 0.00 0.00 0.00 27 1013.6
20260507024315 77 156 0.0 0.0 0.00 0.00 0.00 26 1013.4
20260507023312 78 151 0.0 0.9 0.00 0.00 0.00 26 1013.5
20260507022312 78 191 0.0 0.0 0.00 0.00 0.00 25 1013.3
20260507021310 79 144 0.0 0.0 0.00 0.00 0.00 25 1013.4
20260507020310 80 180 0.0 0.9 0.00 0.00 0.00 25 1013.2
20260507015310 80 171 0.0 0.0 0.00 0.00 0.00 24 1012.9
20260507014309 81 158 0.0 0.0 0.00 0.00 0.00 24 1013.2
20260507013309 82 175 0.9 0.9 0.00 0.00 0.00 23 1013.1
20260507012308 83 200 0.0 0.9 0.00 0.00 0.00 23 1012.9
20260507011308 84 187 0.9 0.9 0.00 0.00 0.00 23 1012.9
20260507010303 85 269 0.9 0.9 0.00 0.00 0.00 22 1012.9
20260507005305 86 147 0.0 0.9 0.00 0.00 0.00 22 1013.1
20260507004304 85 162 0.9 0.9 0.00 0.00 0.00 22 1013.1
20260507003301 86 158 0.0 0.0 0.00 0.00 0.00 22 1012.8
20260507002259 86 211 0.9 1.7 0.00 0.00 0.00 22 1013.1
20260507001254 89 161 0.0 0.9 0.00 0.00 0.00 21 1012.7
20260507000251 88 35 1.7 2.6 0.00 0.00 0.00 21 1012.6
20260506235249 86 169 0.0 0.0 0.00 0.00 0.00 22 1013.2
20260506234244 86 194 0.9 0.9 0.00 0.00 0.00 22 1012.8
20260506233244 88 308 1.7 1.7 0.00 0.00 0.00 22 1013.1
20260506232241 86 251 0.0 0.9 0.00 0.00 0.00 22 1013.1
20260506231237 86 212 0.9 1.7 0.00 0.00 0.00 22 1013.3
20260506230236 87 219 0.0 0.9 0.00 0.00 0.00 22 1013.3
20260506225236 89 222 0.9 0.9 0.00 0.00 0.00 21 1013.5
20260506224236 87 265 0.9 0.9 0.00 0.00 0.00 22 1013.5
20260506223233 89 203 0.9 0.9 0.00 0.00 0.00 22 1013.7
20260506222232 86 252 0.9 1.7 0.00 0.00 0.00 22 1013.7
20260506221228 89 162 0.0 0.0 0.00 0.00 0.00 22 1013.6
20260506220225 87 175 0.9 0.9 0.00 0.00 0.00 22 1013.9
20260506215224 88 178 1.7 1.7 0.00 0.00 0.00 22 1014.0
20260506214224 86 125 0.0 0.0 0.00 0.00 0.00 22 1014.4
20260506213219 85 194 0.9 1.7 0.00 0.00 0.00 23 1014.6
20260506212217 86 176 0.9 1.7 0.00 0.00 0.00 23 1014.4
20260506211216 85 231 2.6 5.2 0.00 0.00 0.00 23 1014.8
20260506210215 84 210 0.9 0.9 0.00 0.00 0.00 24 1014.7
20260506205213 84 253 0.9 1.7 0.00 0.00 0.00 24 1014.9
20260506204208 84 271 0.9 1.7 0.00 0.00 0.00 24 1015.3
20260506203203 85 161 0.0 0.9 0.00 0.00 0.00 24 1015.3
20260506202203 83 157 0.0 0.9 0.00 0.00 0.00 24 1015.6
20260506201202 84 209 0.9 1.7 0.00 0.00 0.00 24 1015.6
20260506200202 83 176 0.9 1.7 0.00 0.00 0.00 24 1015.6
20260506195200 83 284 2.6 5.2 0.00 0.00 0.00 24 1015.6
20260506194200 82 260 0.9 1.7 0.00 0.00 0.00 25 1015.9
20260506193200 81 114 0.9 0.9 0.00 0.00 0.00 25 1015.7
20260506192200 82 221 1.7 1.7 0.00 0.00 0.00 25 1015.9
20260506191158 83 189 0.0 0.0 0.00 0.00 0.00 25 1015.9
20260506190158 82 155 0.0 0.9 0.00 0.00 0.00 26 1016.1
20260506185157 83 187 1.7 1.7 0.00 0.00 0.00 25 1016.2
20260506184152 80 113 0.9 0.9 0.00 0.00 0.00 26 1016.5
20260506183151 80 164 0.0 0.9 0.00 0.00 0.00 26 1016.6
20260506182151 80 199 2.6 2.6 0.00 0.00 0.00 27 1016.4
20260506181146 80 79 1.7 2.6 0.00 0.00 0.00 28 1016.8
20260506180145 79 144 0.9 0.9 0.00 0.00 0.00 28 1016.7
20260506175144 80 115 0.9 1.7 0.00 0.00 0.00 28 1016.9
20260506174139 78 157 0.0 0.9 0.00 0.00 0.00 29 1017.0
20260506173139 80 149 0.0 0.0 0.00 0.00 0.00 28 1016.9
20260506172138 78 137 0.0 0.9 0.00 0.00 0.00 30 1017.0
20260506171134 76 148 0.9 0.9 0.00 0.00 0.00 31 1017.0
20260506170128 79 159 0.0 0.0 0.00 0.00 0.00 30 1017.1
20260506165127 78 134 0.0 0.0 0.00 0.00 0.00 30 1016.7
20260506164127 77 134 0.0 0.0 0.00 0.00 0.00 30 1016.9
20260506163123 76 130 0.0 0.9 0.00 0.00 0.00 31 1016.9
20260506162122 76 144 0.0 0.0 0.00 0.00 0.00 31 1016.7
20260506161121 76 141 0.0 0.0 0.00 0.00 0.00 32 1016.6
20260506160120 73 178 0.0 0.9 0.00 0.00 0.00 33 1016.5
20260506155116 72 187 0.0 0.9 0.00 0.00 0.00 34 1016.7
20260506153011 72 154 0.0 0.0 0.00 0.00 0.00 35 1016.7
20260506152006 73 144 0.0 0.0 0.00 0.00 0.00 34 1016.6
20260506151006 71 144 0.0 0.0 0.00 0.00 0.00 35 1016.6
20260506150005 71 143 0.0 0.0 0.00 0.00 0.00 36 1016.7
20260506145005 70 160 0.0 0.0 0.00 0.00 0.00 37 1016.8
20260506144005 69 143 0.0 0.0 0.00 0.00 0.00 37 1016.6
20260506143000 68 142 0.0 0.0 0.00 0.00 0.00 38 1016.6
20260506141955 70 141 0.0 0.0 0.00 0.00 0.00 35 1016.5
20260506140951 69 134 0.0 0.0 0.00 0.00 0.00 36 1016.4
20260506135951 65 143 0.0 0.0 0.00 0.00 0.00 41 1016.2